Вернуться в каталог

STARLINK-32909

АктивенСвязьVLEO
NORAD 62894·PAYLOAD·🇺🇸 United States

Запущен Feb 4, 2025 с Cape Canaveral Space Force Station

Loading…

Ближайшие Пролёты (ближайшие 24 часа)

TLE

СвежийSource: CelesTrak SupGP

Эпоха: Sep 14, 2026, 21:21 UTC

1 62894C 25024R   26257.89006944 -.00020403  00000+0 -73913-3 0  2577
2 62894  43.0026 337.1280 0001539 277.3558 260.7682 15.27582797    10

Отслеживайте STARLINK-32909 в реальном времени с AllMySat

Download on the App Store